Weather History for Chicopee, MA

Change the Weather History Date:

Thursday, January 17, 2013

  Actual Average Record
Temperature  
Mean Temperature 32 °F -  
Max Temperature 39 °F 27 °F 44 °F (1999)
Min Temperature 26 °F 13 °F -15 °F (2009)
Degree Days  
Heating Degree Days 32    
Moisture  
Dew Point 28 °F    
Average Humidity 90    
Maximum Humidity 100    
Minimum Humidity 51    
Precipitation  
Precipitation 0.01 in - - ()
Sea Level Pressure  
Sea Level Pressure 29.92 in    
Wind  
Wind Speed 2 mph (SW)    
Max Wind Speed 18 mph    
Max Gust Speed 25 mph    
Visibility 3 miles    
Events Fog    
Averages and records for this station are not official NWS values.
T = Trace of Precipitation, MM = Missing Value Source: NWS Daily Summary

Daily Weather History Graph

Daily Weather History Graph

Search for Another Location

Airport:

Trip Planner

Search our weather history database for the weather conditions in past years. The results will help you decide how hot, cold, wet, or windy it might be!

Date:

Astronomy

Jan. 17, 2013 Rise Set
Actual Time 7:15 AM EST 4:45 PM EST
Civil Twilight 6:44 AM EST 5:16 PM EST
Nautical Twilight 6:09 AM EST 5:51 PM EST
Astronomical Twilight 5:36 AM EST 6:24 PM EST
Moon 10:12 AM EST (1/17) 11:43 PM EST (1/17)
Length of Visible Light 10h 32m
Length of Day
9h 30m
Waxing Crescent, 37% of the Moon is Illuminated
Jan 17
Waxing Crescent
Jan 18
First Quarter
Jan 26
Full
Feb 3
Last Quarter
Feb 10
New

Hourly Weather History & Observations

Time (EST) Temp. Windchill Dew Point Humidity Pressure Visibility Wind Dir Wind Speed Gust Speed Precip Events Conditions
12:16 AM 32.0 °F - 30.2 °F 93% 29.87 in 4.0 mi Calm Calm - N/A   Overcast
12:38 AM 32.0 °F - 30.2 °F 93% 29.87 in 2.5 mi Calm Calm - N/A   Overcast
12:55 AM 31.5 °F - 30.9 °F 98% 29.88 in 2.5 mi Calm Calm - N/A   Overcast
1:02 AM 32.0 °F - 30.2 °F 93% 29.88 in 2.0 mi Calm Calm - N/A   Overcast
1:06 AM 32.0 °F - 30.2 °F 93% 29.88 in 1.8 mi Calm Calm - N/A   Overcast
1:08 AM 32.0 °F - 30.2 °F 93% 29.88 in 1.5 mi Calm Calm - N/A   Overcast
1:10 AM 32.0 °F - 30.2 °F 93% 29.88 in 1.8 mi Calm Calm - N/A   Overcast
1:13 AM 32.0 °F - 30.2 °F 93% 29.88 in 2.0 mi Calm Calm - N/A   Overcast
1:16 AM 32.0 °F - 30.2 °F 93% 29.88 in 2.5 mi Calm Calm - N/A   Overcast
1:17 AM 32.0 °F - 30.2 °F 93% 29.88 in 3.0 mi Calm Calm - N/A   Overcast
1:21 AM 32.0 °F 28.7 °F 30.2 °F 93% 29.88 in 2.5 mi South 3.5 mph - N/A   Overcast
1:22 AM 32.0 °F 27.5 °F 30.2 °F 93% 29.88 in 2.0 mi South 4.6 mph - N/A   Overcast
1:23 AM 32.0 °F 27.5 °F 30.2 °F 93% 29.88 in 1.8 mi South 4.6 mph - N/A   Overcast
1:24 AM 32.0 °F 27.5 °F 30.2 °F 93% 29.88 in 1.5 mi South 4.6 mph - N/A   Overcast
1:26 AM 32.0 °F 27.5 °F 30.2 °F 93% 29.88 in 1.2 mi South 4.6 mph - N/A   Overcast
1:28 AM 32.0 °F 27.5 °F 30.2 °F 93% 29.88 in 1.0 mi South 4.6 mph - N/A   Mist
1:29 AM 32.0 °F 27.5 °F 30.2 °F 93% 29.88 in 1.0 mi South 4.6 mph - N/A   Mist
1:30 AM 32.0 °F 27.5 °F 30.2 °F 93% 29.88 in 1.0 mi South 4.6 mph - N/A   Mist
1:36 AM 32.0 °F 27.5 °F 30.2 °F 93% 29.88 in 1.0 mi South 4.6 mph - N/A   Mist
1:37 AM 32.0 °F 28.7 °F 30.2 °F 93% 29.88 in 1.0 mi South 3.5 mph - N/A   Mist
1:41 AM 32.0 °F 28.7 °F 30.2 °F 93% 29.88 in 0.8 mi SSW 3.5 mph - N/A   Mist
1:43 AM 32.0 °F 28.7 °F 30.2 °F 93% 29.88 in 0.8 mi SSW 3.5 mph - N/A   Mist
1:46 AM 32.0 °F 28.7 °F 30.2 °F 93% 29.88 in 0.8 mi SSW 3.5 mph - N/A   Mist
1:50 AM 32.0 °F - 30.2 °F 93% 29.88 in 1.0 mi Calm Calm - N/A   Mist
1:55 AM 31.3 °F - 30.7 °F 98% 29.88 in 1.0 mi Calm Calm - N/A   Mist
1:59 AM 32.0 °F - 30.2 °F 93% 29.88 in 0.8 mi Calm Calm - N/A   Mist
2:02 AM 32.0 °F - 30.2 °F 93% 29.88 in 0.8 mi Calm Calm - N/A   Mist
2:07 AM 30.2 °F 26.7 °F 30.2 °F 100% 29.88 in 0.5 mi South 3.5 mph - N/A Fog Light Freezing Fog
2:16 AM 30.2 °F 26.7 °F 30.2 °F 100% 29.89 in 0.8 mi South 3.5 mph - N/A   Mist
2:22 AM 30.2 °F - 30.2 °F 100% 29.89 in 0.5 mi Calm Calm - N/A Fog Light Freezing Fog
2:46 AM 30.2 °F - 30.2 °F 100% 29.88 in 0.5 mi Calm Calm - N/A Fog Light Freezing Fog
2:49 AM 30.2 °F - 30.2 °F 100% 29.88 in 0.2 mi Calm Calm - N/A Fog Light Freezing Fog
2:50 AM 30.2 °F - 30.2 °F 100% 29.88 in 0.2 mi Calm Calm - N/A Fog Light Freezing Fog
2:55 AM 30.4 °F - 29.8 °F 98% 29.88 in 0.2 mi Calm Calm - N/A Fog Light Freezing Fog
2:59 AM 30.2 °F - 30.2 °F 100% 29.88 in 0.2 mi Calm Calm - N/A Fog Light Freezing Fog
3:03 AM 30.2 °F - 30.2 °F 100% 29.88 in 0.2 mi Calm Calm - N/A Fog Light Freezing Fog
3:17 AM 30.2 °F - 30.2 °F 100% 29.88 in 0.2 mi Calm Calm - N/A Fog Light Freezing Fog
3:18 AM 30.2 °F - 30.2 °F 100% 29.88 in 0.2 mi Calm Calm - N/A Fog Light Freezing Fog
3:26 AM 30.2 °F - 30.2 °F 100% 29.88 in 0.5 mi Calm Calm - N/A Fog Light Freezing Fog
3:38 AM 30.2 °F 26.7 °F 30.2 °F 100% 29.89 in 0.5 mi South 3.5 mph - N/A Fog Light Freezing Fog
3:46 AM 30.2 °F - 30.2 °F 100% 29.89 in 0.2 mi Calm Calm - N/A Fog Light Freezing Fog
3:48 AM 30.2 °F - 30.2 °F 100% 29.88 in 0.2 mi Calm Calm - N/A Fog Light Freezing Fog
3:51 AM 30.2 °F - 30.2 °F 100% 29.88 in 0.2 mi Calm Calm - N/A Fog Light Freezing Fog
3:55 AM 30.0 °F - 29.5 °F 98% 29.88 in 0.2 mi Calm Calm - N/A Fog Light Freezing Fog
4:14 AM 30.2 °F - 30.2 °F 100% 29.87 in 0.2 mi Calm Calm - N/A Fog Light Freezing Fog
4:35 AM 30.2 °F - 28.4 °F 93% 29.87 in 0.2 mi Calm Calm - N/A Fog Light Freezing Fog
4:38 AM 30.2 °F - 28.4 °F 93% 29.88 in 0.2 mi Calm Calm - N/A Fog Light Freezing Fog
4:48 AM 30.2 °F - 28.4 °F 93% 29.88 in 0.2 mi Calm Calm - N/A Fog Light Freezing Fog
4:55 AM 29.3 °F - 28.8 °F 98% 29.88 in 0.2 mi Calm Calm - 0.01 in Fog Light Freezing Fog
5:01 AM 28.4 °F - 28.4 °F 100% 29.88 in 0.2 mi Calm Calm - N/A Fog Light Freezing Fog
5:23 AM 28.4 °F - 28.4 °F 100% 29.89 in 0.2 mi Calm Calm - N/A Fog Light Freezing Fog
5:33 AM 28.4 °F - 28.4 °F 100% 29.90 in 0.2 mi Calm Calm - N/A Fog Light Freezing Fog
5:43 AM 28.4 °F - 26.6 °F 93% 29.90 in 0.2 mi Calm Calm - N/A Fog Light Freezing Fog
5:49 AM 28.4 °F - 26.6 °F 93% 29.90 in 0.2 mi Calm Calm - N/A Fog Light Freezing Fog
5:55 AM 27.5 °F - 27.0 °F 98% 29.90 in 0.2 mi Calm Calm - N/A Fog Light Freezing Fog
6:04 AM 26.6 °F - 26.6 °F 100% 29.90 in 0.2 mi Calm Calm - N/A Fog Light Freezing Fog
6:05 AM 26.6 °F - 26.6 °F 100% 29.90 in 0.2 mi Calm Calm - N/A Fog Light Freezing Fog
6:07 AM 26.6 °F - 26.6 °F 100% 29.90 in 0.2 mi Calm Calm - N/A Fog Light Freezing Fog
6:10 AM 28.4 °F - 26.6 °F 93% 29.91 in 0.5 mi Calm Calm - N/A Fog Light Freezing Fog
6:15 AM 26.6 °F - 26.6 °F 100% 29.91 in 0.2 mi Calm Calm - N/A Fog Light Freezing Fog
6:20 AM 26.6 °F - 26.6 °F 100% 29.91 in 0.2 mi Calm Calm - N/A Fog Light Freezing Fog
6:21 AM 26.6 °F - 26.6 °F 100% 29.91 in 0.2 mi Calm Calm - N/A Fog Light Freezing Fog
6:22 AM 26.6 °F - 26.6 °F 100% 29.91 in 0.2 mi Calm Calm - N/A Fog Light Freezing Fog
6:23 AM 26.6 °F - 26.6 °F 100% 29.91 in 0.2 mi Calm Calm - N/A Fog Light Freezing Drizzle
6:29 AM 26.6 °F - 26.6 °F 100% 29.91 in 0.2 mi Calm Calm - N/A Fog Light Freezing Drizzle
6:55 AM 28.4 °F - 26.6 °F 93% 29.94 in 3.0 mi Calm Calm - N/A Fog Scattered Clouds
7:02 AM 26.6 °F - 26.6 °F 100% 29.94 in 1.0 mi Calm Calm - N/A Fog Scattered Clouds
7:29 AM 28.4 °F 24.6 °F 26.6 °F 93% 29.95 in 4.0 mi SSE 3.5 mph - N/A Fog Mostly Cloudy
7:55 AM 28.4 °F - 28.4 °F 100% 29.96 in 10.0 mi Calm Calm - N/A   Scattered Clouds
8:55 AM 32.0 °F - 30.2 °F 93% 29.99 in 10.0 mi Calm Calm - N/A   Mostly Cloudy
10:55 AM 37.4 °F 33.8 °F 30.2 °F 75% 30.01 in 10.0 mi SSW 4.6 mph - N/A   Mostly Cloudy
11:55 AM 39.2 °F 35.0 °F 30.2 °F 70% 29.99 in 10.0 mi Variable 5.8 mph - N/A   Mostly Cloudy
12:55 PM 39.2 °F 31.2 °F 26.6 °F 61% 29.99 in 10.0 mi NW 13.8 mph - N/A   Mostly Cloudy
1:55 PM 37.4 °F 30.3 °F 24.8 °F 60% 30.01 in 10.0 mi WNW 10.4 mph - N/A   Mostly Cloudy
2:55 PM 37.4 °F 27.5 °F 24.8 °F 60% 30.01 in 10.0 mi WNW 18.4 mph 25.3 mph N/A   Scattered Clouds
3:55 PM 36.3 °F 27.1 °F 21.9 °F 56% 30.04 in 10.0 mi WNW 15.0 mph 21.9 mph N/A   Scattered Clouds
4:42 PM 35.6 °F 28.0 °F 23.0 °F 60% 30.03 in 10.0 mi West 10.4 mph - N/A   Partly Cloudy
4:55 PM 34.5 °F 26.2 °F 22.6 °F 62% 30.06 in 10.0 mi WNW 11.5 mph - N/A   Partly Cloudy
5:55 PM 33.3 °F 22.8 °F 19.6 °F 57% 30.07 in 10.0 mi WNW 16.1 mph - N/A   Clear
6:55 PM 31.8 °F 22.8 °F 20.1 °F 62% 30.10 in 10.0 mi NW 11.5 mph - N/A   Clear
7:55 PM 30.6 °F 21.8 °F 19.6 °F 64% 30.11 in 10.0 mi WNW 10.4 mph - N/A   Overcast
8:55 PM 29.3 °F 21.5 °F 18.7 °F 65% 30.11 in 10.0 mi WNW 8.1 mph - N/A   Clear
9:55 PM 28.6 °F 19.9 °F 14.4 °F 55% 30.09 in 10.0 mi North 9.2 mph - N/A   Partly Cloudy
10:55 PM 27.5 °F 21.1 °F 11.3 °F 51% 30.07 in 10.0 mi NNW 5.8 mph - N/A   Clear
11:55 PM 27.1 °F 21.8 °F 11.3 °F 51% 30.10 in 10.0 mi NNW 4.6 mph - N/A   Overcast